Weather in Birr

Ireland     53°05′48″N   7°54′25″W
temp.,
°C
wind,
m/s
gust,
m/s
humid.,
%
clouds,
%
prec.,
mm/h
press.,
hPa
HPBL,
m
17 may, mon
mon1701:00+7nw269898 1.3 1004195
04:00+3wnw239723 0.0 100549
07:00+4w12965 0.0 100784
10:00+10w238044 0.0 1008705
13:00+13wnw3562100 0.3 10081730
16:00+12w5777100 1.2 10091235
19:00+11w57745 1.7 10091041
22:00+6wsw35920 0.0 101166
18 may, tue
tue1801:00+4sw23955 0.0 101143
04:00+4ssw22955 0.0 101130
07:00+5s22930 0.0 101288
10:00+11sw237429 0.0 1012899
13:00+13wsw346637 0.9 10121472
16:00+13wnw466913 1.8 10131421
19:00+11wnw57705 2.1 1014894
22:00+5w37924 0.0 1016135
19 may, wed
wed1901:00+4wsw35954 0.0 101793
04:00+4sw34963 0.0 101869
07:00+5sw26955 0.0 1019175
10:00+11wsw467432 0.1 10201153
13:00+12wsw467217 0.6 10201091
16:00+14w576331 0.4 10201404
19:00+13wnw457095 0.4 10201100
22:00+7wsw1189100 0.0 102210
20 may, thu
thu2001:00+6sse1192100 0.0 102110
04:00+6se3790100 0.0 1019151
07:00+8sse61286100 0.0 1016812
10:00+9sse91796100 0.8 1011920
13:00+11s91797100 0.9 10081009
16:00+16ssw9157399 0.1 10051510
19:00+12ssw916755 0.2 10031617
22:00+10ssw8167216 0.1 10021362
21 may, fri
fri2101:00+10ssw81767100 0.1 10001635
04:00+10ssw91865100 0.0 9961632
07:00+9ssw81888100 0.6 9921581
10:00+9ssw91888100 0.5 9901621
13:00+9ssw101889100 1.1 9871438
16:00+10sw101693100 2.4 9851393
19:00+10wsw91595100 3.3 9841143
22:00+10w9159484 0.5 986914